Date String (YYYY-MM-DD hh:mm:ss) UTC,Instrument flags,Ambient pressure (hPa),Sample flow (lpm),Bypass flow (lpm),Sample temperature (°C),Ambient temperature (°C),ASC tube jacket temperature (°C),LED temperature (°C),Box temperature (°C),Sample RH (%),Span deviation,Mass concentration (μg/m³),Mass concentration (μg/m³),Mass concentration (μg/m³)
DateTimeUTC,F1_M11,P_M11,Q1_M11,Q2_M11,T1_M11,T2_M11,T3_M11,T4_M11,T5_M11,U1_M11,ZSPAN_M11,X2_M11,X0_M11,X1_M11
2023-03-01 05:00:00,,0817.1,5.00,0.00,22.5,21.2,00.0,31.2,24.1,05.2,0000.0,0001.32,0003.50,0000.77
2023-03-01 05:01:00,,0817.1,5.00,0.00,22.4,20.9,00.0,31.1,24.1,05.3,0000.0,0001.35,0003.65,0000.79
2023-03-01 05:02:00,,0817.1,5.01,0.00,22.4,20.8,00.0,31.1,24.1,05.1,0000.0,0001.35,0003.62,0000.79
2023-03-01 05:03:00,,0817.1,5.00,0.00,22.4,20.7,00.0,31.1,24.0,05.2,0000.0,0001.32,0002.81,0000.80
2023-03-01 05:04:00,,0817.1,5.01,0.00,22.3,20.6,00.0,31.1,24.0,05.3,0000.0,0001.30,0002.52,0000.80
2023-03-01 05:05:00,,0817.2,5.00,0.00,22.3,20.5,00.0,31.1,24.0,05.2,0000.0,0001.30,0002.50,0000.79
2023-03-01 05:06:00,,0817.1,4.99,0.00,22.3,20.4,00.0,31.1,23.9,05.2,0000.0,0001.30,0002.56,0000.80
2023-03-01 05:07:00,,0817.1,5.00,0.00,22.2,20.3,00.0,31.1,23.9,05.3,0000.0,0001.25,0002.53,0000.79
2023-03-01 05:08:00,,0817.1,5.00,0.00,22.2,20.4,00.0,31.0,23.9,05.3,0000.0,0001.25,0002.55,0000.79
2023-03-01 05:09:00,,0817.3,5.00,0.00,22.3,21.4,00.0,31.0,24.1,05.4,0000.0,0001.26,0002.65,0000.79
2023-03-01 05:10:00,,0817.2,5.00,0.00,22.4,22.5,00.0,31.0,24.3,05.4,0000.0,0001.26,0002.54,0000.80
2023-03-01 05:11:00,,0817.1,5.01,0.00,22.5,22.9,00.0,31.0,24.5,05.4,0000.0,0001.26,0002.52,0000.79
2023-03-01 05:12:00,,0817.2,4.99,0.00,22.5,22.3,00.0,31.1,24.4,05.3,0000.0,0001.27,0003.03,0000.78
2023-03-01 05:13:00,,0817.1,5.00,0.00,22.5,21.8,00.0,31.1,24.3,05.3,0000.0,0001.31,0003.56,0000.78
2023-03-01 05:14:00,,0817.1,5.00,0.00,22.4,21.4,00.0,31.1,24.2,05.4,0000.0,0001.30,0004.46,0000.78
2023-03-01 05:15:00,,0817.1,4.99,0.00,22.4,21.2,00.0,31.1,24.1,05.4,0000.0,0001.32,0004.65,0000.78
2023-03-01 05:16:00,,0817.1,5.01,0.00,22.4,20.9,00.0,31.1,24.0,05.4,0000.0,0001.32,0004.59,0000.78
2023-03-01 05:17:00,,0817.1,4.99,0.00,22.3,20.7,00.0,31.1,24.0,05.4,0000.0,0001.32,0004.53,0000.77
2023-03-01 05:18:00,,0817.2,4.99,0.00,22.3,20.5,00.0,31.1,23.9,05.5,0000.0,0001.33,0005.27,0000.76
2023-03-01 05:19:00,,0817.1,5.00,0.00,22.2,20.4,00.0,31.1,23.8,05.6,0000.0,0001.36,0005.48,0000.76
2023-03-01 05:20:00,,0817.1,5.00,0.00,22.2,20.3,00.0,31.0,23.7,05.6,0000.0,0001.34,0005.50,0000.76
2023-03-01 05:21:00,,0817.1,5.01,0.00,22.2,20.2,00.0,31.0,23.7,05.6,0000.0,0001.35,0005.58,0000.76
2023-03-01 05:22:00,,0817.1,5.01,0.00,22.1,20.4,00.0,31.0,23.7,05.6,0000.0,0001.33,0005.53,0000.76
2023-03-01 05:23:00,,0817.2,5.01,0.00,22.2,21.4,00.0,31.0,24.0,05.8,0000.0,0001.28,0004.94,0000.75
2023-03-01 05:24:00,,0817.2,4.94,0.00,22.3,22.5,00.0,31.0,24.3,05.7,0000.0,0001.27,0004.43,0000.75
2023-03-01 05:25:00,,0817.2,5.01,0.00,22.4,23.3,00.0,31.0,24.5,05.7,0000.0,0001.29,0003.78,0000.75
2023-03-01 05:26:00,,0817.2,5.01,0.00,22.5,22.8,00.0,31.1,24.4,05.6,0000.0,0001.31,0003.56,0000.76
2023-03-01 05:27:00,,0817.2,4.99,0.00,22.5,22.2,00.0,31.1,24.3,05.6,0000.0,0001.33,0003.57,0000.77
2023-03-01 05:28:00,,0817.2,4.96,0.00,22.5,21.7,00.0,31.1,24.2,05.5,0000.0,0001.32,0003.60,0000.77
2023-03-01 05:29:00,,0817.3,5.00,0.00,22.4,21.4,00.0,31.1,24.1,05.4,0000.0,0001.31,0003.13,0000.77
2023-03-01 05:30:00,,0817.2,4.99,0.00,22.4,21.1,00.0,31.1,24.0,05.6,0000.0,0001.30,0003.41,0000.77
2023-03-01 05:31:00,,0817.2,4.99,0.00,22.4,20.8,00.0,31.1,24.0,05.6,0000.0,0001.31,0003.36,0000.77
2023-03-01 05:32:00,,0817.2,5.00,0.00,22.3,20.6,00.0,31.1,23.9,05.7,0000.0,0001.34,0003.38,0000.77
2023-03-01 05:33:00,,0817.2,4.99,0.00,22.3,20.4,00.0,31.1,23.8,05.7,0000.0,0001.37,0003.50,0000.76
2023-03-01 05:34:00,,0817.3,5.01,0.00,22.2,20.3,00.0,31.1,23.8,05.8,0000.0,0001.35,0003.51,0000.76
2023-03-01 05:35:00,,0817.2,5.01,0.00,22.2,20.2,00.0,31.0,23.7,05.7,0000.0,0001.29,0003.31,0000.76
2023-03-01 05:36:00,,0817.1,5.00,0.00,22.1,20.2,00.0,31.0,23.6,05.5,0000.0,0001.28,0003.32,0000.76
2023-03-01 05:37:00,,0817.2,5.00,0.00,22.1,20.9,00.0,31.0,23.8,05.8,0000.0,0001.28,0004.80,0000.77
2023-03-01 05:38:00,,0817.3,5.01,0.00,22.2,22.1,00.0,30.9,24.1,05.7,0000.0,0001.26,0004.75,0000.77
2023-03-01 05:39:00,,0817.3,5.00,0.00,22.4,22.9,00.0,31.0,24.4,05.4,0000.0,0001.31,0004.85,0000.77
2023-03-01 05:40:00,,0817.3,5.00,0.00,22.5,22.9,00.0,31.0,24.4,05.4,0000.0,0001.32,0005.75,0000.78
2023-03-01 05:41:00,,0817.3,5.02,0.00,22.4,22.1,00.0,31.0,24.2,05.5,0000.0,0001.34,0005.79,0000.79
2023-03-01 05:42:00,,0817.3,5.01,0.00,22.4,21.5,00.0,31.1,24.0,05.4,0000.0,0001.34,0005.54,0000.79
2023-03-01 05:43:00,,0817.4,5.01,0.00,22.3,21.2,00.0,31.1,23.9,05.4,0000.0,0001.35,0005.60,0000.80
2023-03-01 05:44:00,,0817.4,5.01,0.00,22.3,20.8,00.0,31.0,23.8,05.4,0000.0,0001.31,0005.51,0000.80
2023-03-01 05:45:00,,0817.3,5.00,0.00,22.2,20.6,00.0,31.0,23.7,05.6,0000.0,0001.30,0005.48,0000.82
2023-03-01 05:46:00,,0817.4,5.00,0.00,22.1,20.2,00.0,31.0,23.5,05.5,0000.0,0001.32,0005.57,0000.82
2023-03-01 05:47:00,,0817.4,5.00,0.00,22.0,20.0,00.0,31.0,23.3,05.3,0000.0,0001.31,0005.48,0000.82
2023-03-01 05:48:00,,0817.4,5.01,0.00,21.9,19.8,00.0,30.9,23.2,05.7,0000.0,0001.29,0004.15,0000.82
2023-03-01 05:49:00,,0817.4,5.00,0.00,21.8,20.2,00.0,30.9,23.3,05.9,0000.0,0001.28,0003.90,0000.82
2023-03-01 05:50:00,,0817.4,5.01,0.00,21.9,21.4,00.0,30.8,23.7,06.0,0000.0,0001.26,0003.89,0000.83
2023-03-01 05:51:00,,0817.4,4.97,0.00,22.1,22.4,00.0,30.8,24.0,06.1,0000.0,0001.28,0002.98,0000.84
2023-03-01 05:52:00,,0817.3,4.99,0.00,22.2,22.7,00.0,30.9,24.1,06.2,0000.0,0001.30,0002.58,0000.85
2023-03-01 05:53:00,,0817.3,5.01,0.00,22.2,22.0,00.0,30.9,23.9,06.2,0000.0,0001.34,0002.77,0000.86
2023-03-01 05:54:00,,0817.3,4.99,0.00,22.1,21.4,00.0,30.9,23.7,06.3,0000.0,0001.33,0002.74,0000.86
2023-03-01 05:55:00,,0817.3,4.99,0.00,22.0,20.8,00.0,30.9,23.5,06.2,0000.0,0001.34,0003.21,0000.86
2023-03-01 05:56:00,,0817.4,5.00,0.00,21.9,20.3,00.0,30.9,23.3,06.2,0000.0,0001.36,0003.27,0000.87
2023-03-01 05:57:00,,0817.3,5.01,0.00,21.8,19.9,00.0,30.8,23.1,06.3,0000.0,0001.39,0003.26,0000.88
2023-03-01 05:58:00,,0817.4,5.01,0.00,21.7,19.6,00.0,30.8,23.0,06.4,0000.0,0001.44,0003.41,0000.90
2023-03-01 05:59:00,,0817.3,5.01,0.00,21.6,19.4,00.0,30.7,22.9,06.3,0000.0,0001.47,0003.51,0000.89
